Regional Weather Roundup
Issued by NWS Newport/Morehead, NC

Current Version | Previous Version | Graphics & Text | Print | Product List | Glossary Off
Versions: 1 2 3 4 5 6 7 8 9 10 11 12 13 14 15 16 17 18 19 20 21 22 23 24 25 26 27 28 29 30 31 32 33 34 35 36 37 38 39 40 41 42 43 44 45 46 47 48 49 50

000
ASUS42 KMHX 190922
RWRMHX
WEATHER ROUNDUP FOR EASTERN NORTH CAROLINA
NATIONAL WEATHER SERVICE NEWPORT/MOREHEAD CITY NC
400 AM EST FRI DEC 19 2014

NOTE: "FAIR" INDICATES FEW OR NO CLOUDS BELOW 12,000 FEET
WITH NO SIGNIFICANT WEATHER AND/OR OBSTRUCTIONS TO VISIBILITY

NCZ015>017-031-032-045>047-102-103-191000-
NORTH COAST

CITY           SKY/WX    TMP DP  RH WIND       PRES   REMARKS
EDENTON          N/A     33  30  88 CALM      30.10S
ELIZABETH CITY CLEAR     40  31  70 N5        30.10F
KITTY HAWK     MOSUNNY   40  33  74 N3        30.08S
MANTEO         MOCLDY    39  37  92 NW3       30.09S

$$

NCZ045>047-081-094-103-104-191000-
CENTRAL COAST

CITY           SKY/WX    TMP DP  RH WIND       PRES   REMARKS
FRISCO         PTCLDY    35  34  96 NW3       30.08S
SWANQUARTER      N/A     39 N/A N/A NW3       30.06S

$$

NCZ095-097-098-100-101-191000-
SOUTHERN COAST

CITY           SKY/WX    TMP DP  RH WIND       PRES   REMARKS
BEAUFORT       PTCLDY    35  33  92 CALM      30.10R
CEDAR ISLAND     N/A     41 N/A N/A W3        30.12S
JACKSONVILLE   PTCLDY    35  33  92 NW3       30.10S
PINEY ISLAND   MOSUNNY   45  35  68 SW6       30.09S
WILMINGTON     MOCLDY    36  34  92 CALM      30.09S


$$

NCZ011>013-027>030-043-044-078>080-089-090>093-098-191000-
COASTAL PLAIN

CITY           SKY/WX    TMP DP  RH WIND       PRES   REMARKS
AHOSKIE        CLEAR     29  27  94 CALM      30.11S
CLINTON        CLOUDY    38  37  96 CALM      30.11S
ELIZABETHTOWN  MOCLDY    36  34  93 CALM      30.10S
GOLDSBORO      PTCLDY    37  36  98 CALM      30.09R
GREENVILLE     CLOUDY    32  32 100 CALM      30.12S
HAVELOCK       PTCLDY    34  31  88 CALM      30.11S
KENANSVILLE    CLOUDY    36  35  96 CALM      30.11S
KINSTON        PTCLDY    34  32  95 CALM      30.11S
NEW BERN       CLOUDY    36  33  89 CALM      30.11S
RICHLANDS      CLOUDY    36  32  87 CALM      30.11F
ROCKY MOUNT    CLOUDY    37  35  92 CALM      30.11S
WASHINGTON     CLOUDY    35  32  90 CALM      30.11R
WHITEVILLE     MOCLDY    35  33  92 CALM      30.09S

$$

AMZ130-135-150-152-154-156-158-170-250-252-270-ANZ085-086-088-633-658-670-191000-
MARINE OBSERVATIONS

STATION/POSITION TIME  TEMP    WIND        PRES    WAVE   SWELL
                       AIR SEA DIR/SP/G            HT/PER HT/PER
                 (UTC) (F)     (DEG/KT/KT) (MB)    (FT/S) (FT/S)
CHESAPEAKE LIGHT 0900   40     340/  9/ 11 1019.4
64 E VA BEACH    0900   44 55  320/ 12/ 14 1017.9    3/ 5   2/11
DUCK             0900   43 47  350/  6/  8 1017.9
2 E DUCK         0900      47                N/A     2/ 6
10 NE DUCK       0900      51                N/A     2/ 5
OREGON INLET     0900   42 50  310/  4/  6 1018.6
13E OREGON INLT  0900      53                N/A     3/ 6
HATTERAS CG      0900   46 54  290/  5/  6 1019.0
DIAMOND BUOY     0900   48                 1018.9    3/ 9
17 S OCRACOKE    NOT AVBL
CAPE LOOKOUT     0900   47     340/  7/  8 1018.7
BEAUFORT LAB     0900   44 53   10/  3/  4 1017.9
30 SE NEW RIVER  0900   54 62  330/  8/ 10 1019.1    1/10   2/10
5 SE WRIGHTSVLE  0800   48 55   30/  4/  4 1018.7
225 S CAPE HAT   0836   69 72  300/  8/ 10 1016.8    3/10   3/10
41 SE CHARLESTON 0900   60 72  310/  6/  8 1018.4    2/10   2/10

$$


USA.gov is the U.S. government's official web portal to all federal, state and local government web resources and services.